Location: Clarks Summit,Pa.
(41.5000°N, 75.6000°W)
Time: 18:49:13
(UTC-05:00)

N. Korean satellite - Visible Passes

Search period start: 15 February 2019 00:00
Search period end: 25 February 2019 00:00
Orbit: 457 x 510 km, 97.2° (Epoch: 14 February)

Date Brightness Start Highest point End Pass type
(mag) Time Alt. Az. Time Alt. Az. Time Alt. Az.
15 Feb 6.4 06:24:37 10° N 06:28:07 73° WNW 06:31:33 10° SSW visible
15 Feb 10.2 18:35:24 10° WSW 18:37:13 13° W 18:39:02 10° WNW visible
16 Feb 7.6 06:00:00 10° NNE 06:03:23 48° E 06:06:43 10° S visible
16 Feb 9.4 18:09:14 10° SSW 18:12:20 25° W 18:15:27 10° NW visible
17 Feb 9.2 05:35:44 10° NE 05:38:33 23° E 05:41:20 10° SSE visible
18 Feb 10.2 05:12:31 10° ENE 05:13:38 11° E 05:14:44 10° ESE visible
19 Feb 6.4 06:19:07 10° N 06:22:36 87° WNW 06:26:01 10° SSW visible
19 Feb 10.1 18:29:30 10° SW 18:31:40 15° W 18:33:51 10° NW visible
20 Feb 8.0 05:54:32 10° NNE 05:57:49 40° E 06:01:05 10° S visible
21 Feb 9.5 05:30:23 10° NE 05:32:58 19° E 05:35:31 10° SE visible
23 Feb 6.6 06:13:33 10° NNE 06:17:01 79° ESE 06:20:26 10° S visible
23 Feb 10.0 18:23:40 10° SW 18:26:06 17° W 18:28:32 10° NW visible
24 Feb 8.4 05:49:03 10° NNE 05:52:13 34° E 05:55:22 10° SSE visible
